• In Hungary
  • List of Countries
  • For 7 days
  • Water Temperature
  • Satellite Maps
  • Weather Map
  • News
  • Weather Widgets
  • user-avatar
    Login

    Hourly Weather Kolpny

    Today, 16 November, Friday

    Time Temperature Precipitation Wind Pressure Humidity
    00:00 -5°C° 0 mm 3 mps 764 mmHg 30%
    01:00 -5°C° 0 mm 4 mps 764 mmHg 30%
    02:00 -5°C° 0 mm 4 mps 765 mmHg 29%
    03:00 -5°C° 0 mm 4 mps 765 mmHg 30%
    04:00 -5°C° 0 mm 4 mps 765 mmHg 30%
    05:00 -7°C° 0 mm 4 mps 765 mmHg 31%
    06:00 -5°C° 0 mm 4 mps 765 mmHg 30%
    07:00 -5°C° 0 mm 4 mps 766 mmHg 30%
    08:00 -5°C° 0 mm 4 mps 766 mmHg 30%
    09:00 -4°C° 0 mm 4 mps 766 mmHg 27%
    10:00 -3°C° 0 mm 4 mps 766 mmHg 24%
    11:00 -2°C° 0 mm 4 mps 766 mmHg 21%
    12:00 -1°C° 0 mm 4 mps 766 mmHg 21%
    13:00 -1°C° 0 mm 4 mps 766 mmHg 21%
    14:00 -1°C° 0 mm 4 mps 766 mmHg 21%
    15:00 -2°C° 0 mm 4 mps 766 mmHg 23%
    16:00 -3°C° 0 mm 4 mps 766 mmHg 24%
    17:00 -4°C° 0 mm 4 mps 766 mmHg 26%
    18:00 -4°C° 0 mm 4 mps 766 mmHg 26%
    19:00 -4°C° 0 mm 4 mps 767 mmHg 25%
    20:00 -4°C° 0 mm 3 mps 767 mmHg 25%
    21:00 -4°C° 0 mm 3 mps 767 mmHg 25%
    22:00 -4°C° 0 mm 3 mps 766 mmHg 25%
    23:00 -5°C° 0 mm 3 mps 766 mmHg 25%

    Tomorrow, 17 November, Saturday

    Time Temperature Precipitation Wind Pressure Humidity
    00:00 -5°C° 0 mm 3 mps 766 mmHg 25%
    01:00 -5°C° 0 mm 3 mps 766 mmHg 25%
    02:00 -4°C° 0 mm 2 mps 766 mmHg 25%
    03:00 -4°C° 0 mm 2 mps 766 mmHg 25%
    04:00 -4°C° 0 mm 2 mps 766 mmHg 25%
    05:00 -5°C° 0 mm 2 mps 766 mmHg 25%
    06:00 -4°C° 0 mm 2 mps 765 mmHg 24%
    07:00 -4°C° 0 mm 2 mps 765 mmHg 24%
    08:00 -4°C° 0 mm 2 mps 765 mmHg 23%
    09:00 -3°C° 0 mm 2 mps 765 mmHg 21%
    10:00 -2°C° 0 mm 2 mps 765 mmHg 19%
    11:00 -1°C° 0 mm 2 mps 764 mmHg 17%
    12:00 +2°C° 0 mm 1 mps 764 mmHg 18%
    13:00 +2°C° 0 mm 1 mps 763 mmHg 19%
    14:00 +2°C° 0 mm 1 mps 763 mmHg 20%
    15:00 +1°C° 0 mm 1 mps 762 mmHg 21%
    16:00 0°C° 0 mm 1 mps 761 mmHg 22%
    17:00 -1°C° 0 mm 1 mps 761 mmHg 22%
    18:00 -1°C° 0 mm 1 mps 760 mmHg 22%
    19:00 -1°C° 0 mm 1 mps 760 mmHg 21%
    20:00 -1°C° 0 mm 1 mps 759 mmHg 21%
    21:00 -1°C° 0 mm 1 mps 759 mmHg 21%
    22:00 -1°C° 0 mm 1 mps 758 mmHg 21%
    23:00 -3°C° 0 mm 2 mps 758 mmHg 21%

    Day after tomorrow, 18 November, Sunday

    Time Temperature Precipitation Wind Pressure Humidity
    00:00 -4°C° 0 mm 2 mps 757 mmHg 22%
    01:00 -4°C° 0 mm 2 mps 756 mmHg 22%
    02:00 -4°C° 0 mm 2 mps 756 mmHg 23%
    03:00 -4°C° 0 mm 2 mps 755 mmHg 23%
    04:00 -4°C° 0 mm 2 mps 754 mmHg 23%
    05:00 -5°C° 0 mm 2 mps 754 mmHg 24%
    06:00 -4°C° 0 mm 2 mps 753 mmHg 24%
    07:00 -4°C° 0 mm 2 mps 753 mmHg 25%
    08:00 -4°C° 0 mm 2 mps 753 mmHg 25%
    09:00 -3°C° 0 mm 2 mps 752 mmHg 24%
    10:00 -2°C° 0 mm 2 mps 752 mmHg 23%
    11:00 -1°C° 0 mm 2 mps 752 mmHg 22%
    12:00 -1°C° 0 mm 2 mps 752 mmHg 22%
    13:00 -1°C° 0 mm 2 mps 752 mmHg 23%
    14:00 -1°C° 0 mm 2 mps 752 mmHg 23%
    15:00 -1°C° 0 mm 2 mps 752 mmHg 25%
    16:00 -2°C° 0 mm 2 mps 752 mmHg 27%
    17:00 -3°C° 0 mm 2 mps 752 mmHg 28%
    18:00 -3°C° 0 mm 2 mps 752 mmHg 29%
    19:00 -3°C° 0 mm 2 mps 752 mmHg 30%
    20:00 -3°C° 0 mm 2 mps 752 mmHg 31%
    21:00 -3°C° 0 mm 2 mps 753 mmHg 33%
    22:00 -4°C° 0 mm 2 mps 753 mmHg 34%
    23:00 -4°C° 0 mm 2 mps 753 mmHg 36%

    19 November, Monday

    Time Temperature Precipitation Wind Pressure Humidity
    00:00 -4°C° 0 mm 2 mps 753 mmHg 37%
    01:00 -4°C° 0 mm 2 mps 754 mmHg 38%
    02:00 -2°C° 0 mm 1 mps 754 mmHg 39%
    03:00 -4°C° 0 mm 2 mps 754 mmHg 40%
    04:00 -4°C° 0 mm 2 mps 755 mmHg 41%
    05:00 -4°C° 0 mm 2 mps 755 mmHg 42%
    06:00 -4°C° 0 mm 2 mps 755 mmHg 42%
    07:00 -4°C° 0 mm 2 mps 756 mmHg 43%
    08:00 -4°C° 0 mm 2 mps 756 mmHg 44%
    09:00 -4°C° 0 mm 3 mps 757 mmHg 42%
    10:00 -2°C° 0 mm 3 mps 757 mmHg 40%
    11:00 -1°C° 0 mm 3 mps 758 mmHg 38%
    12:00 -1°C° 0 mm 3 mps 758 mmHg 38%
    13:00 0°C° 0 mm 3 mps 758 mmHg 38%
    14:00 0°C° 0 mm 3 mps 758 mmHg 38%
    15:00 -1°C° 0 mm 3 mps 758 mmHg 40%
    16:00 -1°C° 0 mm 3 mps 759 mmHg 43%
    17:00 -2°C° 0 mm 3 mps 759 mmHg 45%
    18:00 -2°C° 0 mm 3 mps 759 mmHg 46%
    19:00 -2°C° 0 mm 3 mps 759 mmHg 47%
    20:00 -4°C° 0 mm 3 mps 760 mmHg 47%
    21:00 -4°C° 0 mm 3 mps 760 mmHg 48%
    22:00 -4°C° 0 mm 3 mps 760 mmHg 49%
    23:00 -4°C° 0 mm 3 mps 760 mmHg 49%

    20 November, Tuesday

    Time Temperature Precipitation Wind Pressure Humidity
    00:00 -4°C° 0 mm 3 mps 760 mmHg 49%
    01:00 -4°C° 0 mm 3 mps 760 mmHg 49%
    02:00 -5°C° 0 mm 3 mps 760 mmHg 49%
    03:00 -5°C° 0 mm 3 mps 760 mmHg 49%
    04:00 -5°C° 0 mm 3 mps 760 mmHg 48%
    05:00 -5°C° 0 mm 3 mps 760 mmHg 48%
    06:00 -5°C° 0 mm 3 mps 760 mmHg 46%
    07:00 -5°C° 0 mm 3 mps 760 mmHg 45%
    08:00 -5°C° 0 mm 3 mps 760 mmHg 44%
    09:00 -4°C° 0 mm 4 mps 760 mmHg 40%
    10:00 -3°C° 0 mm 4 mps 760 mmHg 36%
    11:00 -2°C° 0 mm 4 mps 760 mmHg 32%
    12:00 -2°C° 0 mm 4 mps 759 mmHg 32%
    13:00 -2°C° 0 mm 4 mps 759 mmHg 31%
    14:00 -1°C° 0 mm 3 mps 759 mmHg 31%
    15:00 -1°C° 0 mm 3 mps 759 mmHg 33%
    16:00 -2°C° 0 mm 3 mps 759 mmHg 35%
    17:00 -4°C° 0 mm 3 mps 759 mmHg 36%
    18:00 -4°C° 0 mm 3 mps 759 mmHg 37%
    19:00 -4°C° 0 mm 3 mps 758 mmHg 38%
    20:00 -4°C° 0 mm 3 mps 758 mmHg 38%
    21:00 -4°C° 0 mm 3 mps 758 mmHg 40%
    22:00 -3°C° 0 mm 2 mps 758 mmHg 42%
    23:00 -4°C° 0 mm 2 mps 758 mmHg 44%

    21 November, Wednesday

    Time Temperature Precipitation Wind Pressure Humidity
    00:00 -4°C° 0 mm 2 mps 758 mmHg 46%
    01:00 -4°C° 0 mm 2 mps 758 mmHg 49%
    02:00 -4°C° 0 mm 2 mps 758 mmHg 51%
    03:00 -4°C° 0 mm 2 mps 757 mmHg 53%
    04:00 -4°C° 0 mm 2 mps 757 mmHg 55%
    05:00 -4°C° 0 mm 2 mps 757 mmHg 58%
    06:00 -4°C° 0 mm 2 mps 757 mmHg 58%
    07:00 -5°C° 0 mm 3 mps 757 mmHg 59%
    08:00 -5°C° 0 mm 3 mps 757 mmHg 60%
    09:00 -4°C° 0 mm 3 mps 757 mmHg 56%
    10:00 -2°C° 0 mm 3 mps 756 mmHg 53%
    11:00 -1°C° 0 mm 3 mps 756 mmHg 50%
    12:00 -1°C° 0 mm 3 mps 756 mmHg 49%
    13:00 -1°C° 0 mm 3 mps 755 mmHg 48%
    14:00 0°C° 0 mm 3 mps 755 mmHg 47%
    15:00 -1°C° 0 mm 3 mps 755 mmHg 48%
    16:00 -2°C° 0 mm 3 mps 754 mmHg 50%
    17:00 -2°C° 0 mm 3 mps 754 mmHg 51%
    18:00 -4°C° 0 mm 3 mps 754 mmHg 49%
    19:00 -4°C° 0 mm 3 mps 754 mmHg 47%
    20:00 -4°C° 0 mm 3 mps 754 mmHg 45%
    21:00 -4°C° 0 mm 3 mps 754 mmHg 44%
    22:00 -4°C° 0 mm 3 mps 754 mmHg 42%
    23:00 -4°C° 0 mm 3 mps 754 mmHg 41%
    Show more